User: anonymous   Login
Location: Unspecified
(0.0000°N, 0.0000°E)
Time: 03:59:38
(UTC+00:00)
Language:

GOES 2 - Orbit

View from above orbital plane
View from above orbital plane
View from above satellite
View from above satellite

Ground track
Ground track

The orbit data is extracted from the following two-line orbital elements,

1 10061U 77048A   17325.45809828 -.00000122  00000-0  00000+0 0  9991
2 10061  13.0582 325.7911 0018364 319.8083 218.5198  0.99395042 92401
Epoch (UTC): 21 November 2017 10:59:39
Eccentricity: 0.0018364
inclination: 13.0582°
perigee height: 35956 km
apogee height: 36111 km
right ascension of ascending node: 325.7911°
argument of perigee: 319.8083°
revolutions per day: 0.99395042
mean anomaly at epoch: 218.5198°
orbit number at epoch: 9240

The dashed part of the orbit path shows where the satellite is in the earth's shadow,  

DLR